C/2007 M3 ( LINEAR )

Japanese version
Home page
Total 5,708 html files since Dec. 4, 1995
Updated on April 3, 2008

---------------------------------------------------------------------

* Profile

Discovery Date June 21, 2007
Magnitude 17.2 mag
Discoverer Lincoln Laboratory Near-Earth Asteroid Research project

* Pictures

* Orbital Elements

Epoch 2007 Sept. 17.0 TT = JDT 2454360.5
T 2007 Sept. 4.59875 TT                                 MPC
q   3.4687884            (2000.0)            P               Q
z  +0.0057129      Peri.  125.73996     +0.07547903     -0.97522780
 +/-0.0000469      Node    41.62732     -0.98573148     -0.04151203
e   0.9801830      Incl.  161.75928     -0.15045386     -0.21727286

* Finding Charts

* Magnitudes Graph

        m1 = 8.5 + 5 log d + 10.0 log r

---------------------------------------------------------------------

The orbital elements are published on M.P.E.C. 2007-Q25.
The charts are made with StellaNavigator Ver.2.0 for Windows (AstroArts / ASCII).
The magnitudes graphs are made with Comet for Windows.

---------------------------------------------------------------------

Copyright(C) 1995-2007 Seiichi Yoshida (comet@aerith.net). All rights reserved.